Lid_Strength_Index
-0 0 2 4 10 11 13 11 8 8 8 5 5 6 7 6 8 11 2 1 0 1 -0 -0 -1 -1 -1 -1 -1 -1 -1 -1 -1 -1 -1 -1 -1 -1 -1 -1 -2 -2 -1 -1 -2 -1 -1 -1 -1
0 2 4 7 11 15 14 10 9 7 6 5 5 6 6 7 4 4 3 1 0 0 0 -0 -1 -1 -1 -1 -1 -1 -1 -1 -1 -1 -1 -1 -1 -1 -1 -1 -2 -2 -1 -1 -1 -1 -1 -1 -1
1 3 8 10 12 14 13 9 8 6 5 6 6 5 5 6 4 3 2 1 0 0 0 -0 -1 -1 -1 -1 -1 -1 -1 -1 -1 -1 -1 -1 -1 -1 -1 -1 -1 -1 -1 -1 -1 -1 -1 -1 -1
4 6 8 12 12 10 9 7 6 6 5 5 5 7 4 3 3 2 1 0 1 0 -0 -0 -1 -1 -1 -1 -1 -1 -1 -1 -1 -1 -1 -1 -1 -1 -1 -1 -1 -2 -2 -2 -1 -1 -1 -1 -1
6 9 12 14 13 10 8 6 6 7 7 7 6 7 6 4 2 1 1 1 1 1 0 -0 -1 -1 -1 -1 -1 -1 -1 -1 -1 -1 -1 -1 -1 -1 -1 -1 -1 -1 -1 -2 -2 -1 -2 -2 -2
9 10 14 15 13 10 7 6 6 7 6 6 7 7 6 4 2 2 2 1 0 1 0 -0 -1 -1 -1 -1 -1 -1 -1 -1 -1 -1 -1 -1 -1 -1 -1 -1 -1 -1 -2 -2 -2 -2 -2 -2 -2
10 13 14 15 13 11 7 7 7 7 7 7 5 7 6 5 3 2 3 1 0 0 0 0 -0 -0 -1 -1 -1 -1 -1 -1 -1 -1 -1 -1 -1 -1 -1 -1 -1 -2 -2 -2 -2 -2 -2 -2 -2
9 12 15 16 14 13 8 7 8 7 6 4 4 8 8 6 4 2 3 1 1 1 0 0 0 0 -0 -0 -1 -1 -1 -1 -1 -1 -1 -1 -1 -1 -1 -1 -1 -1 -2 -2 -2 -2 -2 -2 -2
10 15 16 15 14 12 10 10 8 6 5 5 4 4 3 4 2 2 2 2 2 1 1 0 0 0 0 0 -0 -1 -1 -1 -1 -1 -1 -1 0 0 -0 -1 -1 -1 -1 -2 -2 -2 -2 -1 -2
12 15 13 12 12 12 10 11 9 8 8 6 5 3 3 4 3 4 4 4 3 2 1 1 0 0 0 -0 0 0 -0 -0 -0 -0 -0 -0 0 0 -0 -1 -1 -1 -1 -1 -2 -2 -2 -1 0
13 13 12 10 10 10 10 9 9 9 10 7 6 5 4 3 3 4 4 3 3 2 1 1 1 0 0 0 0 0 -0 -0 -0 -0 0 0 -0 0 0 0 -0 -0 -1 -0 -0 -0 -0 0 0
12 10 10 9 9 10 10 9 9 9 9 6 4 4 4 4 4 3 3 3 3 2 3 2 1 0 0 0 0 0 0 -0 0 -0 0 0 0 0 0 0 0 0 0 0 1 0 0 0 0
12 10 8 8 9 10 9 9 9 9 7 5 5 4 4 4 4 3 3 3 3 2 3 2 1 1 1 0 0 0 0 0 0 0 -0 -0 0 1 0 0 1 0 0 0 1 1 1 1 1
10 9 9 9 9 11 10 9 9 7 5 5 5 5 5 4 4 5 5 4 3 2 2 2 1 1 0 1 0 0 0 0 0 0 -0 -0 0 0 0 1 1 0 0 0 1 1 1 1 2
9 11 10 9 10 10 9 8 8 6 5 6 5 5 4 4 4 4 3 3 3 3 2 2 2 1 1 1 1 1 1 0 1 1 0 -0 0 0 0 1 1 2 2 1 1 2 2 2 2
11 13 14 10 9 8 8 11 7 5 6 6 6 5 5 4 4 3 3 3 3 3 4 1 1 1 1 1 1 0 0 0 1 1 1 0 0 0 1 1 1 1 1 2 2 2 2 3 2
13 14 14 11 8 8 8 11 8 6 6 7 6 6 5 4 4 4 2 2 2 2 3 3 2 1 1 1 1 1 1 1 2 2 2 0 0 2 3 3 3 1 2 1 2 3 3 3 4
14 13 13 12 9 8 9 10 9 8 6 7 6 6 5 5 5 3 3 2 2 2 2 1 1 1 1 1 2 2 2 2 2 2 3 2 2 1 2 2 3 3 2 1 2 3 4 5 4
11 12 12 10 8 9 10 10 9 7 7 7 7 7 6 6 4 3 3 2 2 2 2 2 2 1 1 2 2 2 2 2 2 4 2 2 2 2 2 0 1 2 1 1 2 4 5 5 5
9 11 12 11 8 9 11 11 9 8 7 7 7 7 6 6 5 4 3 3 3 3 2 2 2 2 1 1 1 1 1 2 3 3 2 1 -0 0 0 1 2 1 1 1 2 4 5 5 4
11 12 12 11 9 8 10 12 11 8 7 7 6 6 6 6 5 5 4 3 3 3 2 2 2 2 2 2 1 1 1 2 2 2 2 1 -0 -0 0 1 1 2 2 1 1 3 4 3 5
12 9 9 9 11 14 10 17 12 10 9 8 7 7 6 5 5 4 4 4 3 2 3 3 3 3 2 1 2 3 3 3 2 2 1 1 0 0 -0 0 1 2 2 3 3 3 2 3 4
11 8 10 10 12 12 12 14 12 10 11 9 8 6 6 5 5 5 4 3 3 2 2 2 3 2 2 2 2 2 2 2 2 1 2 1 1 0 1 1 2 2 3 3 2 2 2 2 3
8 9 10 11 13 15 13 13 15 13 11 10 8 6 6 5 5 4 3 3 3 2 2 2 2 2 1 1 1 2 3 3 2 2 2 2 2 2 2 2 2 3 3 2 2 1 2 3 3
9 12 16 16 17 17 12 15 14 10 8 8 7 7 6 5 5 5 4 4 3 3 3 2 2 2 1 1 1 1 2 2 2 3 3 3 2 2 2 2 2 2 3 3 3 4 3 3 2
11 12 15 18 17 16 12 17 14 8 7 6 7 7 6 5 5 5 4 4 4 3 3 2 2 2 2 2 1 1 1 3 3 3 3 3 3 2 3 3 3 4 4 4 4 3 4 3 3
10 12 11 14 14 16 15 13 9 8 8 7 7 7 7 6 5 5 5 4 3 3 3 3 2 2 2 2 1 1 1 2 3 3 4 3 3 1 2 2 3 3 2 4 4 4 4 4 4
10 9 13 14 18 19 16 15 15 12 10 9 9 9 7 7 6 5 5 5 5 4 3 3 3 3 2 2 2 2 1 1 1 3 4 3 3 2 1 2 3 4 4 3 3 4 4 4 3
11 13 12 13 13 17 18 17 10 11 9 9 8 8 8 7 7 6 5 5 4 4 4 3 3 2 2 2 2 2 1 1 1 1 3 3 2 2 2 2 2 3 3 3 3 4 4 3 4
10 11 13 15 15 14 15 16 8 8 8 8 8 7 7 7 6 6 5 5 5 5 4 4 3 3 2 2 2 2 2 2 2 2 2 2 2 2 1 1 2 2 3 4 3 3 3 3 4